| time (UTC) | temp C | wind direction | speed KPH | gust KPH | rain 1hr cm | rain 24hr cm | rain mn cm | humidity % | barometer mb |
| 20260507132242 | 15 | 230 | 19.3 | 0.0 | 0.00 | 0.00 | 0.00 | 58 | |
| 20260507122140 | 15 | 210 | 14.5 | 0.0 | 0.00 | 0.00 | 0.00 | 58 | |
| 20260507112156 | 15 | 240 | 19.3 | 0.0 | 0.00 | 0.00 | 0.00 | 58 | |
| 20260507102340 | 13 | 250 | 14.5 | 0.0 | 0.00 | 0.00 | 0.00 | 67 | |
| 20260507092140 | 13 | 260 | 14.5 | 0.0 | 0.00 | 0.00 | 0.00 | 71 | |
| 20260507082139 | 12 | 240 | 14.5 | 0.0 | 0.00 | 0.00 | 0.00 | 76 | |
| 20260507072140 | 12 | 240 | 14.5 | 0.0 | 0.00 | 0.00 | 0.00 | 81 | |
| 20260507062139 | 10 | 240 | 14.5 | 0.0 | 0.00 | 0.00 | 0.00 | 93 | |
| 20260507052139 | 10 | 230 | 11.3 | 0.0 | 0.00 | 0.00 | 0.00 | 93 | |
| 20260507042341 | 10 | 220 | 19.3 | 0.0 | 0.00 | 0.00 | 0.00 | 93 | |
| 20260507032139 | 10 | 220 | 19.3 | 0.0 | 0.00 | 0.00 | 0.00 | 87 | |
| 20260507022137 | 11 | 190 | 22.5 | 0.0 | 0.00 | 0.00 | 0.00 | 81 | |
| 20260507012238 | 12 | 190 | 25.7 | 0.0 | 0.00 | 0.00 | 0.00 | 76 | |
| 20260507002139 | 12 | 180 | 29.0 | 0.0 | 0.00 | 0.00 | 0.00 | 71 | |
| 20260506232140 | 12 | 170 | 29.0 | 0.0 | 0.00 | 0.00 | 0.00 | 71 | |
| 20260506222411 | 13 | 170 | 32.2 | 49.9 | 0.00 | 0.00 | 0.00 | 67 | |
| 20260506212154 | 13 | 180 | 29.0 | 0.0 | 0.00 | 0.00 | 0.00 | 67 | |
| 20260506202211 | 15 | 170 | 29.0 | 0.0 | 0.00 | 0.00 | 0.00 | 62 | |
| 20260506192347 | 16 | 170 | 29.0 | 0.0 | 0.00 | 0.00 | 0.00 | 55 | |
| 20260506182244 | 16 | 170 | 29.0 | 53.1 | 0.00 | 0.00 | 0.00 | 55 | |
| 20260506172209 | 17 | 160 | 29.0 | 0.0 | 0.00 | 0.00 | 0.00 | 55 | |
| 20260506162410 | 17 | 170 | 29.0 | 46.7 | 0.00 | 0.00 | 0.00 | 51 | |
| 20260506152227 | 17 | 170 | 22.5 | 0.0 | 0.00 | 0.00 | 0.00 | 55 | |
| 20260506142155 | 17 | 180 | 25.7 | 0.0 | 0.00 | 0.00 | 0.00 | 52 |